,,,PA_Meas_PMT16A,,PR_Meas_QMR101_102,,RH_Meas_QMH101,,SR_Meas_QMS101,,TA_Meas_QMH101,,GenWind,,GenWind,
date,time,status,PA,status,PR,status,RH,status,SR,status,TA,status,DirAvg,status,SpdAvg,
2009-10-17, 00:00:04,VALID,1004.53,VALID,0,VALID,93.3165,VALID,0,VALID,24.9476,VALID,20,VALID,0,
2009-10-17, 00:01:04,VALID,1004.52,VALID,0,VALID,93.3317,VALID,0,VALID,24.9476,VALID,20,VALID,0,
2009-10-17, 00:02:04,VALID,1004.53,VALID,0,VALID,93.3699,VALID,0,VALID,24.9476,VALID,20,VALID,0,
2009-10-17, 00:03:04,VALID,1004.54,VALID,0,VALID,93.3546,VALID,0.100563,VALID,24.9885,VALID,20,VALID,0,
2009-10-17, 00:04:04,VALID,1004.56,VALID,0,VALID,93.3546,VALID,0,VALID,24.9476,VALID,20,VALID,0,
2009-10-17, 00:05:04,VALID,1004.56,VALID,0,VALID,93.3546,VALID,0,VALID,24.969,VALID,20,VALID,0,
2009-10-17, 00:06:04,VALID,1004.59,VALID,0,VALID,93.3546,VALID,0,VALID,24.969,VALID,20,VALID,0,
2009-10-17, 00:07:04,VALID,1004.58,VALID,0,VALID,93.3622,VALID,0,VALID,24.9476,VALID,20,VALID,0,
2009-10-17, 00:08:04,VALID,1004.59,VALID,0,VALID,93.3699,VALID,0,VALID,24.9476,VALID,20,VALID,0,
2009-10-17, 00:09:04,VALID,1004.6,VALID,0,VALID,93.347,VALID,0,VALID,24.9476,VALID,20,VALID,0,
2009-10-17, 00:10:04,VALID,1004.59,VALID,0,VALID,93.3546,VALID,0.100563,VALID,24.9476,VALID,20,VALID,0,
2009-10-17, 00:11:04,VALID,1004.61,VALID,0,VALID,93.3699,VALID,0.100563,VALID,24.9885,VALID,20,VALID,0,
2009-10-17, 00:12:04,VALID,1004.59,VALID,0,VALID,93.3699,VALID,0,VALID,24.9866,VALID,20,VALID,0,
2009-10-17, 00:13:04,VALID,1004.55,VALID,0,VALID,93.4309,VALID,0,VALID,25.006,VALID,20,VALID,0,
2009-10-17, 00:14:04,VALID,1004.55,VALID,0,VALID,93.4538,VALID,0,VALID,25.0255,VALID,20,VALID,0,
2009-10-17, 00:15:04,VALID,1004.54,VALID,0,VALID,93.4614,VALID,0,VALID,25.0644,VALID,20,VALID,0,
2009-10-17, 00:16:04,VALID,1004.52,VALID,0,VALID,93.469,VALID,0.100563,VALID,25.0839,VALID,20,VALID,0.408984,
2009-10-17, 00:17:04,VALID,1004.53,VALID,0,VALID,93.4233,VALID,0,VALID,25.1229,VALID,20,VALID,0.195703,
2009-10-17, 00:18:04,VALID,1004.5,VALID,0,VALID,93.3622,VALID,0,VALID,25.1423,VALID,20,VALID,0,
2009-10-17, 00:19:04,VALID,1004.48,VALID,0,VALID,93.3165,VALID,0,VALID,25.2027,VALID,20,VALID,0,
2009-10-17, 00:20:04,VALID,1004.47,VALID,0,VALID,93.2173,VALID,0,VALID,25.2027,VALID,20,VALID,0,
2009-10-17, 00:21:04,VALID,1004.45,VALID,0,VALID,93.141,VALID,0,VALID,25.2007,VALID,20,VALID,0,
2009-10-17, 00:22:04,VALID,1004.43,VALID,0,VALID,93.1029,VALID,0.100563,VALID,25.2007,VALID,20,VALID,0,
2009-10-17, 00:23:04,VALID,1004.41,VALID,0,VALID,93.0342,VALID,0,VALID,25.2007,VALID,20,VALID,0,
2009-10-17, 00:24:04,VALID,1004.42,VALID,0,VALID,93.0037,VALID,0,VALID,25.2202,VALID,20,VALID,0,
2009-10-17, 00:25:04,VALID,1004.38,VALID,0,VALID,92.9503,VALID,0.100563,VALID,25.2397,VALID,20,VALID,0.232422,
2009-10-17, 00:26:04,VALID,1004.34,VALID,0,VALID,92.874,VALID,0,VALID,25.2416,VALID,20,VALID,0.471094,
2009-10-17, 00:27:04,VALID,1004.36,VALID,0,VALID,92.8435,VALID,0.100563,VALID,25.2202,VALID,20,VALID,0.553906,
2009-10-17, 00:28:04,VALID,1004.36,VALID,0,VALID,92.8816,VALID,0,VALID,25.2221,VALID,20,VALID,0.376172,
2009-10-17, 00:29:04,VALID,1004.34,VALID,0,VALID,92.9121,VALID,0,VALID,25.2416,VALID,19,VALID,0.366016,
2009-10-17, 00:30:04,VALID,1004.34,VALID,0,VALID,92.8969,VALID,0,VALID,25.2221,VALID,19,VALID,0.429297,
2009-10-17, 00:31:04,VALID,1004.36,VALID,0,VALID,92.8892,VALID,0,VALID,25.2221,VALID,19,VALID,0.414063,
2009-10-17, 00:32:04,VALID,1004.35,VALID,0,VALID,92.9121,VALID,0,VALID,25.224,VALID,19,VALID,0.363672,
2009-10-17, 00:33:04,VALID,1004.34,VALID,0,VALID,92.9655,VALID,0,VALID,25.224,VALID,19,VALID,0.271484,
2009-10-17, 00:34:04,VALID,1004.33,VALID,0,VALID,93.0342,VALID,0,VALID,25.1832,VALID,19,VALID,0.227344,
2009-10-17, 00:35:04,VALID,1004.35,VALID,0,VALID,93.0876,VALID,0,VALID,25.2027,VALID,19,VALID,0.300391,
2009-10-17, 00:36:04,VALID,1004.33,VALID,0,VALID,93.1791,VALID,0,VALID,25.224,VALID,19,VALID,0.373047,
2009-10-17, 00:37:04,VALID,1004.31,VALID,0,VALID,93.2325,VALID,0,VALID,25.2221,VALID,19,VALID,0.416797,
2009-10-17, 00:38:04,VALID,1004.33,VALID,0,VALID,93.2631,VALID,0,VALID,25.2221,VALID,19,VALID,0.386719,
2009-10-17, 00:39:04,VALID,1004.32,VALID,0,VALID,93.2707,VALID,0,VALID,25.2221,VALID,19,VALID,0.253906,
2009-10-17, 00:40:04,VALID,1004.31,VALID,0,VALID,93.2859,VALID,0,VALID,25.2221,VALID,19,VALID,0.416016,
2009-10-17, 00:41:04,VALID,1004.32,VALID,0,VALID,93.2859,VALID,0,VALID,25.2221,VALID,19,VALID,0.529297,
2009-10-17, 00:42:04,VALID,1004.28,VALID,0,VALID,93.2936,VALID,0,VALID,25.2221,VALID,19,VALID,0.376172,
2009-10-17, 00:43:04,VALID,1004.28,VALID,0,VALID,93.2859,VALID,0,VALID,25.2202,VALID,19,VALID,0.465625,
2009-10-17, 00:44:04,VALID,1004.31,VALID,0,VALID,93.2783,VALID,0,VALID,25.2007,VALID,19,VALID,0.488281,
2009-10-17, 00:45:04,VALID,1004.3,VALID,0,VALID,93.2631,VALID,0,VALID,25.2007,VALID,16,VALID,0.400781,
2009-10-17, 00:46:04,VALID,1004.3,VALID,0,VALID,93.2631,VALID,0,VALID,25.2416,VALID,14,VALID,0.466406,
2009-10-17, 00:47:04,VALID,1004.28,VALID,0,VALID,93.2936,VALID,0,VALID,25.2611,VALID,13,VALID,0.353906,
2009-10-17, 00:48:04,VALID,1004.28,VALID,0,VALID,93.2707,VALID,0,VALID,25.2806,VALID,13,VALID,0.443359,
2009-10-17, 00:49:04,VALID,1004.28,VALID,0,VALID,93.2859,VALID,0,VALID,25.2592,VALID,13,VALID,0.437109,
2009-10-17, 00:50:04,VALID,1004.25,VALID,0,VALID,93.2783,VALID,0,VALID,25.2786,VALID,13,VALID,0.361719,
2009-10-17, 00:51:04,VALID,1004.27,VALID,0,VALID,93.2554,VALID,0,VALID,25.2786,VALID,13,VALID,0.509375,
2009-10-17, 00:52:04,VALID,1004.27,VALID,0,VALID,93.202,VALID,0,VALID,25.3195,VALID,10,VALID,0.528906,
2009-10-17, 00:53:04,VALID,1004.29,VALID,0,VALID,93.1563,VALID,0,VALID,25.2981,VALID,10,VALID,0.357422,
2009-10-17, 00:54:04,VALID,1004.28,VALID,0,VALID,93.1257,VALID,0,VALID,25.3195,VALID,10,VALID,0.357812,
2009-10-17, 00:55:04,VALID,1004.29,VALID,0,VALID,93.1486,VALID,0,VALID,25.339,VALID,10,VALID,0.219922,
2009-10-17, 00:56:04,VALID,1004.3,VALID,0,VALID,93.1257,VALID,0,VALID,25.3176,VALID,10,VALID,0.327734,
2009-10-17, 00:57:04,VALID,1004.29,VALID,0,VALID,93.0952,VALID,0,VALID,25.3195,VALID,10,VALID,0.383594,
2009-10-17, 00:58:04,VALID,1004.32,VALID,0,VALID,93.1029,VALID,0,VALID,25.3195,VALID,10,VALID,0.285937,
2009-10-17, 00:59:04,VALID,1004.27,VALID,0,VALID,93.0952,VALID,0,VALID,25.339,VALID,10,VALID,0.380078,
2009-10-17, 01:00:04,VALID,1004.28,VALID,0,VALID,93.1105,VALID,0,VALID,25.3176,VALID,10,VALID,0.367969,
2009-10-17, 01:01:04,VALID,1004.26,VALID,0,VALID,93.0723,VALID,0,VALID,25.3176,VALID,10,VALID,0.349219,
2009-10-17, 01:02:04,VALID,1004.27,VALID,0,VALID,93.08,VALID,0,VALID,25.3176,VALID,10,VALID,0.309766,
2009-10-17, 01:03:04,VALID,1004.24,VALID,0,VALID,93.0876,VALID,0,VALID,25.2981,VALID,10,VALID,0.332812,
2009-10-17, 01:04:04,VALID,1004.22,VALID,0,VALID,93.0571,VALID,0,VALID,25.3176,VALID,10,VALID,0.330469,
2009-10-17, 01:05:04,VALID,1004.2,VALID,0,VALID,93.0876,VALID,0,VALID,25.3176,VALID,10,VALID,0.217969,
2009-10-17, 01:06:04,VALID,1004.19,VALID,0,VALID,93.08,VALID,0,VALID,25.2981,VALID,10,VALID,0,
2009-10-17, 01:07:04,VALID,1004.19,VALID,0,VALID,93.0952,VALID,0,VALID,25.3195,VALID,10,VALID,0.0046875,
2009-10-17, 01:08:04,VALID,1004.15,VALID,0,VALID,93.08,VALID,0,VALID,25.3195,VALID,10,VALID,0.192969,
2009-10-17, 01:09:04,VALID,1004.11,VALID,0,VALID,93.0571,VALID,0,VALID,25.2786,VALID,10,VALID,0.246094,
2009-10-17, 01:10:04,VALID,1004.1,VALID,0,VALID,93.0647,VALID,0,VALID,25.2786,VALID,10,VALID,0.207031,
2009-10-17, 01:11:04,VALID,1004.09,VALID,0,VALID,93.0647,VALID,0,VALID,25.3195,VALID,10,VALID,0.201562,
2009-10-17, 01:12:04,VALID,1004.15,VALID,0,VALID,93.0723,VALID,0,VALID,25.2786,VALID,10,VALID,0,
2009-10-17, 01:13:04,VALID,1004.11,VALID,0,VALID,93.0266,VALID,0,VALID,25.3,VALID,10,VALID,0,
2009-10-17, 01:14:04,VALID,1004.13,VALID,0,VALID,93.0189,VALID,0,VALID,25.2786,VALID,10,VALID,0.0148437,
2009-10-17, 01:15:04,VALID,1004.13,VALID,0,VALID,93.0495,VALID,0,VALID,25.3195,VALID,10,VALID,0.264844,
2009-10-17, 01:16:04,VALID,1004.12,VALID,0,VALID,93.0113,VALID,0,VALID,25.3195,VALID,10,VALID,0,
2009-10-17, 01:17:04,VALID,1004.14,VALID,0,VALID,92.9655,VALID,0,VALID,25.3,VALID,10,VALID,0,
2009-10-17, 01:18:04,VALID,1004.11,VALID,0,VALID,92.9503,VALID,0,VALID,25.2981,VALID,10,VALID,0,
2009-10-17, 01:19:04,VALID,1004.11,VALID,0,VALID,92.9732,VALID,0,VALID,25.3,VALID,10,VALID,0,
2009-10-17, 01:20:04,VALID,1004.09,VALID,0,VALID,92.9808,VALID,0,VALID,25.2806,VALID,10,VALID,0,
2009-10-17, 01:21:04,VALID,1004.1,VALID,0,VALID,93.0266,VALID,0,VALID,25.2592,VALID,10,VALID,0,
2009-10-17, 01:22:04,VALID,1004.08,VALID,0,VALID,93.0571,VALID,0,VALID,25.2202,VALID,10,VALID,0,
2009-10-17, 01:23:04,VALID,1004.05,VALID,0,VALID,93.0571,VALID,0,VALID,25.2221,VALID,10,VALID,0,
2009-10-17, 01:24:04,VALID,1004.05,VALID,0,VALID,93.0876,VALID,0,VALID,25.2027,VALID,10,VALID,0,
2009-10-17, 01:25:04,VALID,1004.02,VALID,0,VALID,93.141,VALID,0,VALID,25.1832,VALID,2,VALID,0.496875,
2009-10-17, 01:26:04,VALID,1003.99,VALID,0,VALID,93.1791,VALID,0,VALID,25.1637,VALID,360,VALID,0.594922,
2009-10-17, 01:27:04,VALID,1003.99,VALID,0,VALID,93.2402,VALID,0,VALID,25.1637,VALID,348,VALID,0.51875,
2009-10-17, 01:28:04,VALID,1003.98,VALID,0,VALID,93.2478,VALID,0,VALID,25.1442,VALID,348,VALID,0.547266,
2009-10-17, 01:29:04,VALID,1003.97,VALID,0,VALID,93.2707,VALID,0,VALID,25.1442,VALID,348,VALID,0.560156,
2009-10-17, 01:30:04,VALID,1003.97,VALID,0,VALID,93.3317,VALID,0,VALID,25.1248,VALID,348,VALID,0.50625,
2009-10-17, 01:31:04,VALID,1003.98,VALID,0,VALID,93.3699,VALID,0,VALID,25.0839,VALID,348,VALID,0.478906,
2009-10-17, 01:32:04,VALID,1003.96,VALID,0,VALID,93.4309,VALID,0,VALID,25.0839,VALID,348,VALID,0.549609,
2009-10-17, 01:33:04,VALID,1003.97,VALID,0,VALID,93.469,VALID,0,VALID,25.0644,VALID,348,VALID,0.326562,
2009-10-17, 01:34:04,VALID,1003.95,VALID,0,VALID,93.469,VALID,0,VALID,25.0644,VALID,348,VALID,0.344141,
2009-10-17, 01:35:04,VALID,1003.92,VALID,0,VALID,93.5224,VALID,0,VALID,25.0236,VALID,348,VALID,0.378516,
2009-10-17, 01:36:04,VALID,1003.91,VALID,0,VALID,93.553,VALID,0,VALID,25.0469,VALID,351,VALID,0.65625,
2009-10-17, 01:37:04,VALID,1003.88,VALID,0,VALID,93.614,VALID,0,VALID,25.045,VALID,348,VALID,0.706641,
2009-10-17, 01:38:04,VALID,1003.86,VALID,0,VALID,93.6903,VALID,0,VALID,25.0255,VALID,345,VALID,0.687891,
2009-10-17, 01:39:04,VALID,1003.81,VALID,0,VALID,93.6903,VALID,0,VALID,25.045,VALID,348,VALID,0.678516,
2009-10-17, 01:40:04,VALID,1003.8,VALID,0,VALID,93.7208,VALID,0,VALID,25.0663,VALID,354,VALID,0.643359,
2009-10-17, 01:41:04,VALID,1003.76,VALID,0,VALID,93.6826,VALID,0,VALID,25.0663,VALID,353,VALID,0.644141,
2009-10-17, 01:42:04,VALID,1003.74,VALID,0,VALID,93.6903,VALID,0,VALID,25.0663,VALID,352,VALID,0.466406,
2009-10-17, 01:43:04,VALID,1003.74,VALID,0,VALID,93.6598,VALID,0,VALID,25.045,VALID,352,VALID,0.630469,
2009-10-17, 01:44:04,VALID,1003.74,VALID,0,VALID,93.6216,VALID,0,VALID,25.0469,VALID,352,VALID,0.396875,
2009-10-17, 01:45:04,VALID,1003.78,VALID,0,VALID,93.6216,VALID,0,VALID,25.0274,VALID,352,VALID,0.370703,
2009-10-17, 01:46:04,VALID,1003.76,VALID,0,VALID,93.614,VALID,0,VALID,25.0274,VALID,353,VALID,0.327734,
2009-10-17, 01:47:04,VALID,1003.8,VALID,0,VALID,93.6216,VALID,0,VALID,25.006,VALID,353,VALID,0.449609,
2009-10-17, 01:48:04,VALID,1003.79,VALID,0,VALID,93.6216,VALID,0,VALID,25.006,VALID,352,VALID,0.317187,
2009-10-17, 01:49:04,VALID,1003.82,VALID,0,VALID,93.614,VALID,0,VALID,25.006,VALID,352,VALID,0.397266,
2009-10-17, 01:50:04,VALID,1003.82,VALID,0,VALID,93.5606,VALID,0,VALID,25.0274,VALID,348,VALID,0.530859,
2009-10-17, 01:51:04,VALID,1003.83,VALID,0,VALID,93.469,VALID,0,VALID,25.045,VALID,344,VALID,0.316797,
2009-10-17, 01:52:04,VALID,1003.81,VALID,0,VALID,93.3622,VALID,0.100563,VALID,25.0858,VALID,344,VALID,0.459766,
2009-10-17, 01:53:04,VALID,1003.85,VALID,0,VALID,93.2554,VALID,0,VALID,25.1248,VALID,344,VALID,0.2875,
2009-10-17, 01:54:04,VALID,1003.85,VALID,0,VALID,93.1486,VALID,0,VALID,25.1442,VALID,344,VALID,0.203906,
2009-10-17, 01:55:04,VALID,1003.85,VALID,0,VALID,93.0418,VALID,0,VALID,25.1423,VALID,344,VALID,0,
2009-10-17, 01:56:04,VALID,1003.84,VALID,0,VALID,92.9808,VALID,0,VALID,25.1618,VALID,344,VALID,0,
2009-10-17, 01:57:04,VALID,1003.82,VALID,0,VALID,92.8969,VALID,0,VALID,25.1442,VALID,344,VALID,0,
2009-10-17, 01:58:04,VALID,1003.85,VALID,0,VALID,92.8664,VALID,0,VALID,25.1229,VALID,344,VALID,0,
2009-10-17, 01:59:04,VALID,1003.82,VALID,0,VALID,92.8664,VALID,0,VALID,25.1442,VALID,344,VALID,0,
2009-10-17, 02:00:04,VALID,1003.82,VALID,0,VALID,92.8511,VALID,0,VALID,25.1442,VALID,344,VALID,0,
2009-10-17, 02:01:04,VALID,1003.86,VALID,0,VALID,92.8511,VALID,0,VALID,25.1248,VALID,344,VALID,0,
2009-10-17, 02:02:04,VALID,1003.81,VALID,0,VALID,92.8664,VALID,0,VALID,25.1034,VALID,344,VALID,0,
2009-10-17, 02:03:04,VALID,1003.8,VALID,0,VALID,92.8664,VALID,0,VALID,25.1034,VALID,344,VALID,0.526172,
2009-10-17, 02:04:04,VALID,1003.79,VALID,0,VALID,92.8969,VALID,0,VALID,25.1053,VALID,344,VALID,0.483203,
2009-10-17, 02:05:04,VALID,1003.77,VALID,0,VALID,92.9121,VALID,0,VALID,25.1053,VALID,344,VALID,0.519141,
2009-10-17, 02:06:04,VALID,1003.77,VALID,0,VALID,92.935,VALID,0,VALID,25.0839,VALID,344,VALID,0.454688,
2009-10-17, 02:07:04,VALID,1003.76,VALID,0,VALID,92.9579,VALID,0,VALID,25.0663,VALID,344,VALID,0.481641,
2009-10-17, 02:08:04,VALID,1003.72,VALID,0,VALID,92.9732,VALID,0.100563,VALID,25.0663,VALID,344,VALID,0.436328,
2009-10-17, 02:09:04,VALID,1003.75,VALID,0,VALID,93.0342,VALID,0,VALID,25.0255,VALID,344,VALID,0.423047,
2009-10-17, 02:10:04,VALID,1003.75,VALID,0,VALID,93.0723,VALID,0,VALID,25.0255,VALID,344,VALID,0.458984,
2009-10-17, 02:11:04,VALID,1003.73,VALID,0,VALID,93.141,VALID,0,VALID,25.0274,VALID,344,VALID,0.489453,
2009-10-17, 02:12:04,VALID,1003.71,VALID,0,VALID,93.1868,VALID,0,VALID,25.006,VALID,344,VALID,0.520703,
2009-10-17, 02:13:04,VALID,1003.7,VALID,0,VALID,93.2249,VALID,0,VALID,25.0274,VALID,344,VALID,0.394531,
2009-10-17, 02:14:04,VALID,1003.71,VALID,0,VALID,93.2554,VALID,0,VALID,24.9866,VALID,344,VALID,0.41875,
2009-10-17, 02:15:04,VALID,1003.7,VALID,0,VALID,93.2554,VALID,0,VALID,25.006,VALID,339,VALID,0.330859,
2009-10-17, 02:16:04,VALID,1003.66,VALID,0,VALID,93.2402,VALID,0,VALID,25.006,VALID,339,VALID,0.405859,
2009-10-17, 02:17:04,VALID,1003.66,VALID,0,VALID,93.2783,VALID,0,VALID,25.0274,VALID,339,VALID,0.464844,
2009-10-17, 02:18:04,VALID,1003.68,VALID,0,VALID,93.2936,VALID,0,VALID,25.0274,VALID,340,VALID,0.500781,
2009-10-17, 02:19:04,VALID,1003.67,VALID,0,VALID,93.3546,VALID,0,VALID,25.006,VALID,340,VALID,0.476563,
2009-10-17, 02:20:04,VALID,1003.63,VALID,0,VALID,93.3699,VALID,0,VALID,25.006,VALID,348,VALID,0.685547,
2009-10-17, 02:21:04,VALID,1003.66,VALID,0,VALID,93.4004,VALID,0.100563,VALID,25.0469,VALID,356,VALID,0.78125,
2009-10-17, 02:22:04,VALID,1003.67,VALID,0,VALID,93.3622,VALID,0.100563,VALID,25.0469,VALID,358,VALID,0.764063,
2009-10-17, 02:23:04,VALID,1003.66,VALID,0,VALID,93.3699,VALID,0,VALID,25.0255,VALID,358,VALID,0.639844,
2009-10-17, 02:24:04,VALID,1003.67,VALID,0,VALID,93.347,VALID,0.100563,VALID,25.006,VALID,358,VALID,0.575,
2009-10-17, 02:25:04,VALID,1003.68,VALID,0,VALID,93.3241,VALID,0,VALID,25.006,VALID,358,VALID,0.454688,
2009-10-17, 02:26:04,VALID,1003.63,VALID,0,VALID,93.3088,VALID,0,VALID,25.0274,VALID,358,VALID,0.489062,
2009-10-17, 02:27:04,VALID,1003.64,VALID,0,VALID,93.3165,VALID,0,VALID,25.0255,VALID,358,VALID,0.310156,
2009-10-17, 02:28:04,VALID,1003.64,VALID,0,VALID,93.3088,VALID,0,VALID,25.0469,VALID,358,VALID,0.331641,
2009-10-17, 02:29:04,VALID,1003.61,VALID,0,VALID,93.2936,VALID,0,VALID,25.0663,VALID,358,VALID,0.419922,
2009-10-17, 02:30:04,VALID,1003.59,VALID,0,VALID,93.2478,VALID,0,VALID,25.0663,VALID,358,VALID,0.351172,
2009-10-17, 02:31:04,VALID,1003.54,VALID,0,VALID,93.2249,VALID,0,VALID,25.0469,VALID,358,VALID,0.383203,
2009-10-17, 02:32:04,VALID,1003.54,VALID,0,VALID,93.1868,VALID,0,VALID,25.0469,VALID,358,VALID,0.501953,
2009-10-17, 02:33:04,VALID,1003.52,VALID,0,VALID,93.1715,VALID,0,VALID,25.0469,VALID,358,VALID,0.476953,
2009-10-17, 02:34:04,VALID,1003.49,VALID,0,VALID,93.141,VALID,0,VALID,25.0469,VALID,358,VALID,0.428906,
2009-10-17, 02:35:04,VALID,1003.51,VALID,0,VALID,93.141,VALID,0,VALID,25.0255,VALID,358,VALID,0.442578,
2009-10-17, 02:36:04,VALID,1003.49,VALID,0,VALID,93.1563,VALID,0,VALID,24.9866,VALID,358,VALID,0,
2009-10-17, 02:37:04,VALID,1003.5,VALID,0,VALID,93.141,VALID,0,VALID,24.9866,VALID,358,VALID,0,
2009-10-17, 02:38:04,VALID,1003.52,VALID,0,VALID,93.1563,VALID,0,VALID,24.9866,VALID,355,VALID,0,
2009-10-17, 02:39:04,VALID,1003.51,VALID,0,VALID,93.1639,VALID,0,VALID,24.9885,VALID,355,VALID,0,
2009-10-17, 02:40:04,VALID,1003.51,VALID,0,VALID,93.1563,VALID,0,VALID,24.9671,VALID,355,VALID,0,
2009-10-17, 02:41:04,VALID,1003.48,VALID,0,VALID,93.1639,VALID,0,VALID,25.0079,VALID,355,VALID,0,
2009-10-17, 02:42:04,VALID,1003.46,VALID,0,VALID,93.2097,VALID,0,VALID,25.0079,VALID,355,VALID,0,
2009-10-17, 02:43:04,VALID,1003.47,VALID,0,VALID,93.2554,VALID,0,VALID,24.9866,VALID,355,VALID,0,
2009-10-17, 02:44:04,VALID,1003.45,VALID,0,VALID,93.2783,VALID,0,VALID,24.9671,VALID,355,VALID,0,
2009-10-17, 02:45:04,VALID,1003.47,VALID,0,VALID,93.2859,VALID,0,VALID,24.9671,VALID,355,VALID,0,
2009-10-17, 02:46:04,VALID,1003.47,VALID,0,VALID,93.3012,VALID,0,VALID,24.9885,VALID,355,VALID,0,
2009-10-17, 02:47:04,VALID,1003.52,VALID,0,VALID,93.3317,VALID,0,VALID,24.9476,VALID,355,VALID,0,
2009-10-17, 02:48:04,VALID,1003.55,VALID,0,VALID,93.3394,VALID,0,VALID,24.969,VALID,355,VALID,0,
2009-10-17, 02:49:04,VALID,1003.7,VALID,0,VALID,93.4614,VALID,0,VALID,24.9476,VALID,175,VALID,2.32578,
2009-10-17, 02:50:04,VALID,1003.73,VALID,0,VALID,93.5758,VALID,0,VALID,25.0274,VALID,169,VALID,1.05078,
2009-10-17, 02:51:04,VALID,1003.72,VALID,0,VALID,93.3851,VALID,0,VALID,25.006,VALID,175,VALID,1.90273,
2009-10-17, 02:52:04,VALID,1003.75,VALID,0,VALID,90.7226,VALID,0,VALID,24.9671,VALID,211,VALID,1.0418,
2009-10-17, 02:53:04,VALID,1003.73,VALID,0,VALID,88.0678,VALID,0,VALID,24.9866,VALID,204,VALID,1.61758,
2009-10-17, 02:54:04,VALID,1003.72,VALID,0,VALID,86.7099,VALID,0,VALID,25.0858,VALID,180,VALID,1.18516,
2009-10-17, 02:55:04,VALID,1003.73,VALID,0,VALID,83.7041,VALID,0,VALID,25.1248,VALID,191,VALID,2.03867,
2009-10-17, 02:56:04,VALID,1003.73,VALID,0,VALID,82.903,VALID,0,VALID,25.1637,VALID,174,VALID,2.1832,
2009-10-17, 02:57:04,VALID,1003.73,VALID,0,VALID,82.3843,VALID,0,VALID,25.1618,VALID,164,VALID,1.16484,
2009-10-17, 02:58:04,VALID,1003.77,VALID,0,VALID,82.6055,VALID,0,VALID,25.1832,VALID,224,VALID,0.815625,
2009-10-17, 02:59:04,VALID,1003.78,VALID,0,VALID,82.3614,VALID,0,VALID,25.1851,VALID,161,VALID,1.11055,
2009-10-17, 03:00:04,VALID,1003.78,VALID,0,VALID,80.9043,VALID,0,VALID,25.1832,VALID,201,VALID,2.56289,
2009-10-17, 03:01:04,VALID,1003.81,VALID,0,VALID,81.3086,VALID,0,VALID,25.2221,VALID,144,VALID,2.72031,
2009-10-17, 03:02:04,VALID,1003.9,VALID,1.5,VALID,84.7797,VALID,0,VALID,24.8346,VALID,174,VALID,3.14531,
2009-10-17, 03:03:04,VALID,1003.95,VALID,2,VALID,87.549,VALID,0,VALID,24.2328,VALID,199,VALID,2.59609,
2009-10-17, 03:04:04,VALID,1004.03,VALID,2,VALID,89.7233,VALID,0,VALID,23.8027,VALID,201,VALID,2.40195,
2009-10-17, 03:05:04,VALID,1004.01,VALID,1.5,VALID,91.2567,VALID,0,VALID,23.4894,VALID,198,VALID,1.44141,
2009-10-17, 03:06:04,VALID,1003.94,VALID,2,VALID,92.2332,VALID,0,VALID,23.2754,VALID,184,VALID,1.42383,
2009-10-17, 03:07:04,VALID,1003.86,VALID,1,VALID,93.1334,VALID,0,VALID,23.1391,VALID,150,VALID,1.30352,
2009-10-17, 03:08:04,VALID,1003.79,VALID,1.5,VALID,93.6292,VALID,0,VALID,23.0418,VALID,110,VALID,0.81875,
2009-10-17, 03:09:04,VALID,1003.76,VALID,1.5,VALID,94.0107,VALID,0,VALID,23.0241,VALID,97,VALID,1.96211,
2009-10-17, 03:10:04,VALID,1003.59,VALID,2,VALID,94.0259,VALID,0,VALID,22.7888,VALID,121,VALID,3.74766,
2009-10-17, 03:11:04,VALID,1003.57,VALID,1,VALID,93.3546,VALID,0,VALID,22.5164,VALID,119,VALID,2.48672,
2009-10-17, 03:12:04,VALID,1003.59,VALID,0.5,VALID,93.8276,VALID,0,VALID,22.458,VALID,162,VALID,1.57266,
2009-10-17, 03:13:04,VALID,1003.64,VALID,0,VALID,94.293,VALID,0,VALID,22.4386,VALID,191,VALID,1.50742,
2009-10-17, 03:14:04,VALID,1003.63,VALID,0,VALID,94.5981,VALID,0,VALID,22.4386,VALID,180,VALID,0.228516,
2009-10-17, 03:15:04,VALID,1003.66,VALID,0,VALID,94.8422,VALID,0,VALID,22.5164,VALID,158,VALID,1.00312,
2009-10-17, 03:16:04,VALID,1003.69,VALID,0,VALID,95.0635,VALID,0,VALID,22.6721,VALID,132,VALID,0.662891,
2009-10-17, 03:17:04,VALID,1003.69,VALID,0,VALID,95.2084,VALID,0,VALID,22.7305,VALID,101,VALID,0.805078,
2009-10-17, 03:18:04,VALID,1003.71,VALID,0,VALID,95.3076,VALID,0,VALID,22.7694,VALID,147,VALID,0.422266,
2009-10-17, 03:19:04,VALID,1003.73,VALID,0,VALID,95.3534,VALID,0,VALID,22.8083,VALID,144,VALID,0.296484,
2009-10-17, 03:20:04,VALID,1003.74,VALID,0,VALID,95.3991,VALID,0,VALID,22.8278,VALID,144,VALID,0.0648438,
2009-10-17, 03:21:04,VALID,1003.73,VALID,0.5,VALID,95.4449,VALID,0,VALID,22.8472,VALID,144,VALID,0.0351563,
2009-10-17, 03:22:04,VALID,1003.73,VALID,0,VALID,95.506,VALID,0,VALID,22.8667,VALID,144,VALID,0,
2009-10-17, 03:23:04,VALID,1003.77,VALID,0,VALID,95.5136,VALID,0,VALID,22.8861,VALID,144,VALID,0,
2009-10-17, 03:24:04,VALID,1003.76,VALID,0,VALID,95.5594,VALID,0,VALID,22.9056,VALID,149,VALID,0.330859,
2009-10-17, 03:25:04,VALID,1003.76,VALID,0,VALID,95.5899,VALID,0,VALID,22.9268,VALID,169,VALID,0.342969,
2009-10-17, 03:26:04,VALID,1003.77,VALID,0,VALID,95.6051,VALID,0,VALID,22.9445,VALID,177,VALID,0.338281,
2009-10-17, 03:27:04,VALID,1003.77,VALID,0,VALID,95.628,VALID,0,VALID,23.0029,VALID,311,VALID,0.624609,
2009-10-17, 03:28:04,VALID,1003.79,VALID,0,VALID,95.6662,VALID,0.100563,VALID,23.0224,VALID,285,VALID,0,
2009-10-17, 03:29:04,VALID,1003.82,VALID,0,VALID,95.6814,VALID,0,VALID,23.0224,VALID,355,VALID,0.457422,
2009-10-17, 03:30:04,VALID,1003.83,VALID,0,VALID,95.6967,VALID,0,VALID,23.0418,VALID,353,VALID,0.128516,
2009-10-17, 03:31:04,VALID,1003.87,VALID,0,VALID,95.7196,VALID,0,VALID,23.0807,VALID,320,VALID,0.36875,
2009-10-17, 03:32:04,VALID,1003.92,VALID,0,VALID,95.7196,VALID,0,VALID,23.0595,VALID,332,VALID,0.414453,
2009-10-17, 03:33:04,VALID,1003.98,VALID,0,VALID,95.7424,VALID,0,VALID,23.1197,VALID,305,VALID,0.626562,
2009-10-17, 03:34:04,VALID,1004.02,VALID,0,VALID,95.7501,VALID,0,VALID,23.1179,VALID,300,VALID,0.415625,
2009-10-17, 03:35:04,VALID,1004.09,VALID,0,VALID,95.7501,VALID,0,VALID,23.1763,VALID,335,VALID,0.503125,
2009-10-17, 03:36:04,VALID,1004.15,VALID,0,VALID,95.7653,VALID,0,VALID,23.2152,VALID,308,VALID,0.688281,
2009-10-17, 03:37:04,VALID,1004.18,VALID,0.5,VALID,95.7959,VALID,0,VALID,23.2754,VALID,208,VALID,0.625781,
2009-10-17, 03:38:04,VALID,1004.25,VALID,0,VALID,95.773,VALID,0,VALID,23.3337,VALID,231,VALID,0.817969,
2009-10-17, 03:39:04,VALID,1004.28,VALID,0,VALID,95.8035,VALID,0,VALID,23.4116,VALID,218,VALID,0.482422,
2009-10-17, 03:40:04,VALID,1004.34,VALID,0,VALID,95.8035,VALID,0,VALID,23.4894,VALID,211,VALID,0.782422,
2009-10-17, 03:41:04,VALID,1004.36,VALID,0,VALID,95.8111,VALID,0,VALID,23.5284,VALID,289,VALID,0.986719,
2009-10-17, 03:42:04,VALID,1004.4,VALID,0,VALID,95.7959,VALID,0,VALID,23.5673,VALID,252,VALID,1.46523,
2009-10-17, 03:43:04,VALID,1004.38,VALID,0,VALID,95.8111,VALID,0,VALID,23.5868,VALID,215,VALID,1.1082,
2009-10-17, 03:44:04,VALID,1004.43,VALID,0,VALID,95.8264,VALID,0,VALID,23.6275,VALID,303,VALID,0.490234,
2009-10-17, 03:45:04,VALID,1004.42,VALID,0,VALID,95.8111,VALID,0,VALID,23.5868,VALID,286,VALID,0.0941406,
2009-10-17, 03:46:04,VALID,1004.39,VALID,0,VALID,95.8264,VALID,0.100563,VALID,23.6062,VALID,286,VALID,0.0308594,
2009-10-17, 03:47:04,VALID,1004.34,VALID,0,VALID,95.834,VALID,0,VALID,23.6062,VALID,274,VALID,0.144141,
2009-10-17, 03:48:04,VALID,1004.34,VALID,0,VALID,95.8416,VALID,0,VALID,23.6062,VALID,267,VALID,0.226563,